Location: Newark
(45.5000°N, 11.4167°E)
Time: 04:50:03
(UTC+00:00)

Vanguard 3 - Pass Details

Date: 31 August 2019
Orbit: 508 x 3263 km, 33.4° (Epoch: 14 September)

Event Time Altitude Azimuth Distance (km) Brightness Sun altitude
Rises 14:04:24 0° 241° (WSW) 6,538 12.7 38.2°
Reaches altitude 10° 14:09:42 10° 235° (SW) 5,122 12.5 37.4°
Maximum altitude 14:21:35 37° 176° (S) 2,407 10.2 35.6°
Drops below altitude 10° 14:28:49 10° 111° (ESE) 3,109 9.9 34.4°
Sets 14:31:14 0° 103° (ESE) 3,782 10.2 34.1°
